Date String (YYYY-MM-DD hh:mm:ss) UTC,Instrument flags,absolute air pressure of the measurement (hPa),sample flow rate (lpm),inlet stack bypass flow (lpm),air temperature of the measurement (°C),ambient temperature measured by the external sensor (°C),aerosol sample conditioner tube jacket temperature (°C),OPC LED temperature (°C),internal box temperature (°C),relative humidity of the measurement (%),span deviation,mass concentration of particles derived from Lorenz-Mie calculation of OPC scattering (μg/m³),mass concentration of particles derived from Lorenz-Mie calculation of OPC scattering (μg/m³),mass concentration of particles derived from Lorenz-Mie calculation of OPC scattering (μg/m³)
DateTimeUTC,F1_M11,P_M11,Q1_M11,Q2_M11,T1_M11,T2_M11,T3_M11,T4_M11,T5_M11,U1_M11,ZSPAN_M11,X2_M11,X0_M11,X1_M11
2023-06-08 09:00:00,SystemResetWarning,0829.9,5.00,000.00,029.6,027.8,000.0,038.2,031.0,22.8,0000.0,0002.55,0004.05,0001.99
2023-06-08 09:01:00,SystemResetWarning,0829.9,5.00,000.00,029.5,027.8,000.0,038.2,030.9,22.7,0000.0,0002.58,0004.12,0002.00
2023-06-08 09:02:00,SystemResetWarning,0829.9,5.00,000.00,029.5,027.8,000.0,038.2,030.9,22.7,0000.0,0002.61,0004.29,0002.02
2023-06-08 09:03:00,SystemResetWarning,0829.9,5.00,000.00,029.5,027.8,000.0,038.2,030.9,22.9,0000.0,0002.56,0004.09,0002.04
2023-06-08 09:04:00,SystemResetWarning,0829.9,5.00,000.00,029.5,027.7,000.0,038.2,030.9,22.8,0000.0,0002.54,0003.98,0002.05
2023-06-08 09:05:00,SystemResetWarning,0829.9,5.00,000.00,029.5,027.7,000.0,038.2,030.9,22.9,0000.0,0002.50,0003.71,0002.06
2023-06-08 09:06:00,SystemResetWarning,0829.8,5.00,000.00,029.5,027.7,000.0,038.2,030.9,22.8,0000.0,0002.54,0003.76,0002.06
2023-06-08 09:07:00,SystemResetWarning,0829.8,4.99,000.00,029.5,027.7,000.0,038.2,030.9,22.8,0000.0,0002.55,0003.76,0002.06
2023-06-08 09:08:00,SystemResetWarning,0829.8,4.98,000.00,029.5,027.7,000.0,038.1,030.9,22.8,0000.0,0002.52,0003.75,0002.05
2023-06-08 09:09:00,SystemResetWarning,0829.8,5.00,000.00,029.5,027.7,000.0,038.1,030.9,22.8,0000.0,0002.53,0003.78,0002.05
2023-06-08 09:10:00,SystemResetWarning,0829.8,5.01,000.00,029.5,027.7,000.0,038.1,030.9,22.9,0000.0,0002.54,0003.88,0002.03
2023-06-08 09:11:00,SystemResetWarning,0829.8,5.00,000.00,029.5,027.7,000.0,038.1,030.9,22.8,0000.0,0002.54,0003.97,0002.02
2023-06-08 09:12:00,SystemResetWarning,0829.8,5.00,000.00,029.5,027.7,000.0,038.1,030.9,22.8,0000.0,0002.53,0003.99,0002.02
2023-06-08 09:13:00,SystemResetWarning,0829.7,4.99,000.00,029.5,027.7,000.0,038.1,030.9,22.8,0000.0,0002.55,0003.90,0002.02
2023-06-08 09:14:00,SystemResetWarning,0829.7,4.99,000.00,029.5,027.7,000.0,038.1,030.9,22.9,0000.0,0002.54,0003.90,0002.02
2023-06-08 09:15:00,SystemResetWarning,0829.7,4.99,000.00,029.5,027.7,000.0,038.1,030.9,22.7,0000.0,0002.53,0004.06,0002.00
2023-06-08 09:16:00,SystemResetWarning,0829.7,5.00,000.00,029.5,027.7,000.0,038.1,030.9,22.7,0000.0,0002.53,0004.10,0002.00
2023-06-08 09:17:00,SystemResetWarning,0829.7,5.00,000.00,029.5,027.7,000.0,038.1,030.9,22.7,0000.0,0002.53,0004.10,0001.99
2023-06-08 09:18:00,SystemResetWarning,0829.7,5.00,000.00,029.5,027.7,000.0,038.1,030.9,22.6,0000.0,0002.51,0004.25,0001.99
2023-06-08 09:19:00,SystemResetWarning,0829.8,5.00,000.00,029.5,027.7,000.0,038.1,030.9,22.6,0000.0,0002.52,0004.42,0002.00
2023-06-08 09:20:00,SystemResetWarning,0829.7,5.01,000.00,029.5,027.7,000.0,038.1,030.9,22.6,0000.0,0002.53,0004.66,0002.00
2023-06-08 09:21:00,SystemResetWarning,0829.7,5.00,000.00,029.5,027.7,000.0,038.1,030.9,22.6,0000.0,0002.52,0004.81,0002.00
2023-06-08 09:22:00,SystemResetWarning,0829.7,5.00,000.00,029.5,027.7,000.0,038.1,030.9,22.5,0000.0,0002.49,0004.69,0002.01
2023-06-08 09:23:00,SystemResetWarning,0829.7,5.00,000.00,029.5,027.7,000.0,038.1,030.9,22.6,0000.0,0002.48,0004.58,0002.00
2023-06-08 09:24:00,SystemResetWarning,0829.7,4.99,000.00,029.4,027.7,000.0,038.1,030.9,22.6,0000.0,0002.43,0004.48,0001.99
2023-06-08 09:25:00,SystemResetWarning,0829.7,4.99,000.00,029.5,027.7,000.0,038.1,030.9,22.5,0000.0,0002.41,0004.54,0001.98
2023-06-08 09:26:00,SystemResetWarning,0829.7,5.00,000.00,029.4,027.7,000.0,038.1,030.9,22.6,0000.0,0002.47,0004.56,0001.99
2023-06-08 09:27:00,SystemResetWarning,0829.7,5.00,000.00,029.4,027.7,000.0,038.1,030.8,22.6,0000.0,0002.52,0004.66,0001.99
2023-06-08 09:28:00,SystemResetWarning,0829.7,5.01,000.00,029.4,027.7,000.0,038.1,030.8,22.7,0000.0,0002.53,0004.69,0001.98
2023-06-08 09:29:00,SystemResetWarning,0829.7,5.01,000.00,029.4,027.7,000.0,038.1,030.9,22.7,0000.0,0002.55,0004.58,0001.98
2023-06-08 09:30:00,SystemResetWarning,0829.7,5.00,000.00,029.4,027.7,000.0,038.1,030.9,22.7,0000.0,0002.55,0004.29,0001.98
2023-06-08 09:31:00,SystemResetWarning,0829.7,5.00,000.00,029.4,027.7,000.0,038.1,030.9,22.7,0000.0,0002.60,0004.26,0001.98
2023-06-08 09:32:00,SystemResetWarning,0829.7,5.00,000.00,029.4,027.7,000.0,038.1,030.8,22.7,0000.0,0002.60,0003.96,0001.99
2023-06-08 09:33:00,SystemResetWarning,0829.7,5.00,000.00,029.4,027.7,000.0,038.0,030.8,22.7,0000.0,0002.59,0003.93,0001.98
2023-06-08 09:34:00,SystemResetWarning,0829.7,5.00,000.00,029.4,027.7,000.0,038.0,030.8,22.6,0000.0,0002.61,0003.96,0001.99
2023-06-08 09:35:00,SystemResetWarning,0829.8,5.00,000.00,029.4,027.7,000.0,038.0,030.8,22.7,0000.0,0002.64,0004.04,0001.99
2023-06-08 09:36:00,SystemResetWarning,0829.8,5.00,000.00,029.4,027.7,000.0,038.0,030.8,22.7,0000.0,0002.69,0004.26,0002.00
2023-06-08 09:37:00,SystemResetWarning,0829.8,4.99,000.00,029.4,027.7,000.0,038.0,030.9,22.7,0000.0,0002.61,0004.03,0001.99
2023-06-08 09:38:00,SystemResetWarning,0829.9,5.00,000.00,029.4,027.7,000.0,038.0,030.9,22.8,0000.0,0002.56,0003.91,0001.99
2023-06-08 09:39:00,SystemResetWarning,0829.9,5.00,000.00,029.4,027.6,000.0,038.0,030.8,22.7,0000.0,0002.58,0004.09,0002.00
2023-06-08 09:40:00,SystemResetWarning,0829.9,5.01,000.00,029.4,027.6,000.0,038.0,030.8,22.6,0000.0,0002.54,0004.00,0001.99
2023-06-08 09:41:00,SystemResetWarning,0830.0,5.00,000.00,029.4,027.6,000.0,038.0,030.8,22.9,0000.0,0002.55,0004.06,0001.99
2023-06-08 09:42:00,SystemResetWarning,0830.0,5.00,000.00,029.4,027.6,000.0,038.0,030.8,22.8,0000.0,0002.54,0004.00,0001.99
2023-06-08 09:43:00,SystemResetWarning,0830.0,4.99,000.00,029.4,027.7,000.0,038.0,030.8,22.8,0000.0,0002.53,0003.99,0001.99
2023-06-08 09:44:00,SystemResetWarning,0830.0,4.99,000.00,029.4,027.7,000.0,038.0,030.9,22.8,0000.0,0002.53,0004.04,0001.99
2023-06-08 09:45:00,SystemResetWarning,0830.0,5.00,000.00,029.4,027.7,000.0,038.0,030.9,23.1,0000.0,0002.55,0004.11,0001.99
2023-06-08 09:46:00,SystemResetWarning,0830.0,5.00,000.00,029.4,027.7,000.0,038.0,030.9,23.2,0000.0,0002.51,0004.01,0001.98
2023-06-08 09:47:00,SystemResetWarning,0830.0,5.00,000.00,029.4,027.7,000.0,038.0,030.9,23.5,0000.0,0002.47,0003.69,0001.98
2023-06-08 09:48:00,SystemResetWarning,0830.0,5.00,000.00,029.4,027.7,000.0,038.0,030.9,23.4,0000.0,0002.48,0003.69,0001.97
2023-06-08 09:49:00,SystemResetWarning,0830.0,5.01,000.00,029.4,027.7,000.0,038.0,030.9,23.2,0000.0,0002.49,0003.83,0001.96
2023-06-08 09:50:00,SystemResetWarning,0830.0,5.01,000.00,029.4,027.7,000.0,038.0,030.9,23.1,0000.0,0002.46,0003.67,0001.97
2023-06-08 09:51:00,SystemResetWarning,0830.0,5.00,000.00,029.4,027.7,000.0,038.0,030.9,23.1,0000.0,0002.46,0003.67,0001.97
2023-06-08 09:52:00,SystemResetWarning,0830.0,5.00,000.00,029.4,027.7,000.0,038.0,030.9,23.0,0000.0,0002.43,0003.55,0001.97
2023-06-08 09:53:00,SystemResetWarning,0830.0,5.00,000.00,029.4,027.7,000.0,038.0,030.9,22.9,0000.0,0002.38,0003.44,0001.97
2023-06-08 09:54:00,SystemResetWarning,0830.0,5.00,000.00,029.4,027.7,000.0,038.0,030.9,22.8,0000.0,0002.36,0003.82,0001.96
2023-06-08 09:55:00,SystemResetWarning,0830.0,5.00,000.00,029.4,027.7,000.0,038.0,030.9,22.8,0000.0,0002.35,0004.74,0001.95
2023-06-08 09:56:00,SystemResetWarning,0830.0,5.00,000.00,029.4,027.7,000.0,038.0,030.9,22.8,0000.0,0002.32,0004.71,0001.94
2023-06-08 09:57:00,SystemResetWarning,0830.0,5.00,000.00,029.4,027.8,000.0,038.0,030.9,22.8,0000.0,0002.33,0004.70,0001.94
2023-06-08 09:58:00,SystemResetWarning,0830.0,5.00,000.00,029.5,027.8,000.0,038.0,030.9,22.7,0000.0,0002.33,0004.71,0001.95
2023-06-08 09:59:00,SystemResetWarning,0830.0,5.00,000.00,029.5,027.8,000.0,038.0,030.9,22.7,0000.0,0002.36,0004.80,0001.95
